User: anonymous   Login
Location: Bergnershof
(48.9468°N, 10.9431°E)
Time: 16:55:29
(UTC+00:00)
Language:

Cosmos 2184 Rocket - Orbit

View from above orbital plane
View from above orbital plane
View from above satellite
View from above satellite

Ground track
Ground track

The orbit data is extracted from the following two-line orbital elements,

1 21938U 92020B   21125.49050353  .00000018  00000-0  28560-5 0  9991
2 21938  82.9340  27.4796 0028783 192.5327 340.3897 13.75286569457937
Epoch (UTC): 05 May 2021 11:46:19
Eccentricity: 0.0028783
inclination: 82.9340°
perigee height: 959 km
apogee height: 1002 km
right ascension of ascending node: 27.4796°
argument of perigee: 192.5327°
revolutions per day: 13.75286569
mean anomaly at epoch: 340.3897°
orbit number at epoch: 45793

The dashed part of the orbit path shows where the satellite is in the earth's shadow,  

DLR